Year,Month,Day,Hour,Minute,Value (Times are PST for temperature in C)
2002,04,28,00,00,9.20
2002,04,28,00,01,9.20
2002,04,28,00,02,9.20
2002,04,28,00,03,9.20
2002,04,28,00,04,9.20
2002,04,28,00,05,9.20
2002,04,28,00,06,9.20
2002,04,28,00,07,9.20
2002,04,28,00,08,9.20
2002,04,28,00,09,9.20
2002,04,28,00,10,9.10
2002,04,28,00,11,9.10
2002,04,28,00,12,9.10
2002,04,28,00,13,9.10
2002,04,28,00,14,9.10
2002,04,28,00,15,9.00
2002,04,28,00,16,9.00
2002,04,28,00,17,9.00
2002,04,28,00,18,9.00
2002,04,28,00,19,9.00
2002,04,28,00,20,9.00
2002,04,28,00,21,9.00
2002,04,28,00,22,8.90
2002,04,28,00,23,8.90
2002,04,28,00,24,8.90
2002,04,28,00,25,8.90
2002,04,28,00,26,8.90
2002,04,28,00,27,8.90
2002,04,28,00,28,8.90
2002,04,28,00,29,8.90
2002,04,28,00,30,8.90
2002,04,28,00,31,8.90
2002,04,28,00,32,8.90
2002,04,28,00,33,8.90
2002,04,28,00,34,8.90
2002,04,28,00,35,8.90
2002,04,28,00,36,8.90
2002,04,28,00,37,8.90
2002,04,28,00,38,9.00
2002,04,28,00,39,9.00
2002,04,28,00,40,9.00
2002,04,28,00,41,9.00
2002,04,28,00,42,9.00
2002,04,28,00,43,9.00
2002,04,28,00,44,8.90
2002,04,28,00,45,8.90
2002,04,28,00,46,8.90
2002,04,28,00,47,8.80
2002,04,28,00,48,8.80
2002,04,28,00,49,8.70
2002,04,28,00,50,8.70
2002,04,28,00,51,8.70
2002,04,28,00,52,8.70
2002,04,28,00,53,8.70
2002,04,28,00,54,8.60
2002,04,28,00,55,8.50
2002,04,28,00,56,8.50
2002,04,28,00,57,8.50
2002,04,28,00,58,8.40
2002,04,28,00,59,8.40
2002,04,28,01,00,8.40
2002,04,28,01,01,8.30
2002,04,28,01,02,8.30
2002,04,28,01,03,8.30
2002,04,28,01,04,8.30
2002,04,28,01,05,8.30
2002,04,28,01,06,8.30
2002,04,28,01,07,8.30
2002,04,28,01,08,8.20
2002,04,28,01,09,8.20
2002,04,28,01,10,8.20
2002,04,28,01,11,8.20
2002,04,28,01,12,8.20
2002,04,28,01,13,8.20
2002,04,28,01,14,8.20
2002,04,28,01,15,8.20
2002,04,28,01,16,8.20
2002,04,28,01,17,8.20
2002,04,28,01,18,8.10
2002,04,28,01,19,8.10
2002,04,28,01,20,8.10
2002,04,28,01,21,8.10
2002,04,28,01,22,8.10
2002,04,28,01,23,8.10
2002,04,28,01,24,8.10
2002,04,28,01,25,8.10
2002,04,28,01,26,8.10
2002,04,28,01,27,8.10
2002,04,28,01,28,8.10
2002,04,28,01,29,8.20
2002,04,28,01,30,8.20
2002,04,28,01,31,8.20
2002,04,28,01,32,8.20
2002,04,28,01,33,8.20
2002,04,28,01,34,8.20
2002,04,28,01,35,8.20
2002,04,28,01,36,8.20
2002,04,28,01,37,8.20
2002,04,28,01,38,8.20
2002,04,28,01,39,8.20
2002,04,28,01,40,8.20
2002,04,28,01,41,8.20
2002,04,28,01,42,8.20
2002,04,28,01,43,8.20
2002,04,28,01,44,8.20
2002,04,28,01,45,8.20
2002,04,28,01,46,8.20
2002,04,28,01,47,8.20
2002,04,28,01,48,8.20
2002,04,28,01,49,8.20
2002,04,28,01,50,8.20
2002,04,28,01,51,8.10
2002,04,28,01,52,8.10
2002,04,28,01,53,8.10
2002,04,28,01,54,8.00
2002,04,28,01,55,8.00
2002,04,28,01,56,8.00
2002,04,28,01,57,8.00
2002,04,28,01,58,8.00
2002,04,28,01,59,8.00
2002,04,28,02,00,8.00
2002,04,28,02,01,8.00
2002,04,28,02,02,8.00
2002,04,28,02,03,8.00
2002,04,28,02,04,8.00
2002,04,28,02,05,8.10
2002,04,28,02,06,8.10
2002,04,28,02,07,8.10
2002,04,28,02,08,8.10
2002,04,28,02,09,8.20
2002,04,28,02,10,8.20
2002,04,28,02,11,8.20
2002,04,28,02,12,8.20
2002,04,28,02,13,8.10
2002,04,28,02,14,8.10
2002,04,28,02,15,8.10
2002,04,28,02,16,8.10
2002,04,28,02,17,8.10
2002,04,28,02,18,8.10
2002,04,28,02,19,8.10
2002,04,28,02,20,8.10
2002,04,28,02,21,8.10
2002,04,28,02,22,8.00
2002,04,28,02,23,8.00
2002,04,28,02,24,8.00
2002,04,28,02,25,8.00
2002,04,28,02,26,8.00
2002,04,28,02,27,8.00
2002,04,28,02,28,7.90
2002,04,28,02,29,7.90
2002,04,28,02,30,7.90
2002,04,28,02,31,7.90
2002,04,28,02,32,7.90
2002,04,28,02,33,8.00
2002,04,28,02,34,8.00
2002,04,28,02,35,8.00
2002,04,28,02,36,8.00
2002,04,28,02,37,8.00
2002,04,28,02,38,8.00
2002,04,28,02,39,8.00
2002,04,28,02,40,8.00
2002,04,28,02,41,8.00
2002,04,28,02,42,8.00
2002,04,28,02,43,7.90
2002,04,28,02,44,7.90
2002,04,28,02,45,7.80
2002,04,28,02,46,7.80
2002,04,28,02,47,7.80
2002,04,28,02,48,7.70
2002,04,28,02,49,7.70
2002,04,28,02,50,7.70
2002,04,28,02,51,7.60
2002,04,28,02,52,7.60
2002,04,28,02,53,7.60
2002,04,28,02,54,7.60
2002,04,28,02,55,7.60
2002,04,28,02,56,7.60
2002,04,28,02,57,7.50
2002,04,28,02,58,7.50
2002,04,28,02,59,7.40
2002,04,28,03,00,7.30
2002,04,28,03,01,7.30
2002,04,28,03,02,7.30
2002,04,28,03,03,7.30
2002,04,28,03,04,7.30
2002,04,28,03,05,7.30
2002,04,28,03,06,7.30
2002,04,28,03,07,7.30
2002,04,28,03,08,7.40
2002,04,28,03,09,7.40
2002,04,28,03,10,7.50
2002,04,28,03,11,7.50
2002,04,28,03,12,7.50
2002,04,28,03,13,7.60
2002,04,28,03,14,7.60
2002,04,28,03,15,7.60
2002,04,28,03,16,7.60
2002,04,28,03,17,7.70
2002,04,28,03,18,7.80
2002,04,28,03,19,7.80
2002,04,28,03,20,7.80
2002,04,28,03,21,7.80
2002,04,28,03,22,7.80
2002,04,28,03,23,7.80
2002,04,28,03,24,7.70
2002,04,28,03,25,7.60
2002,04,28,03,26,7.60
2002,04,28,03,27,7.50
2002,04,28,03,28,7.30
2002,04,28,03,29,7.20
2002,04,28,03,30,7.10
2002,04,28,03,31,6.90
2002,04,28,03,32,6.80
2002,04,28,03,33,6.70
2002,04,28,03,34,6.60
2002,04,28,03,35,6.50
2002,04,28,03,36,6.40
2002,04,28,03,37,6.40
2002,04,28,03,38,6.30
2002,04,28,03,39,6.30
2002,04,28,03,40,6.30
2002,04,28,03,41,6.30
2002,04,28,03,42,6.30
2002,04,28,03,43,6.30
2002,04,28,03,44,6.30
2002,04,28,03,45,6.30
2002,04,28,03,46,6.30
2002,04,28,03,47,6.30
2002,04,28,03,48,6.30
2002,04,28,03,49,6.30
2002,04,28,03,50,6.30
2002,04,28,03,51,6.30
2002,04,28,03,52,6.30
2002,04,28,03,53,6.30
2002,04,28,03,54,6.20
2002,04,28,03,55,6.20
2002,04,28,03,56,6.20
2002,04,28,03,57,6.20
2002,04,28,03,58,6.20
2002,04,28,03,59,6.20
2002,04,28,04,00,6.20
2002,04,28,04,01,6.20
2002,04,28,04,02,6.20
2002,04,28,04,03,6.20
2002,04,28,04,04,6.20
2002,04,28,04,05,6.20
2002,04,28,04,06,6.20
2002,04,28,04,07,6.20
2002,04,28,04,08,6.20
2002,04,28,04,09,6.20
2002,04,28,04,10,6.20
2002,04,28,04,11,6.20
2002,04,28,04,12,6.20
2002,04,28,04,13,6.20
2002,04,28,04,14,6.20
2002,04,28,04,15,6.20
2002,04,28,04,16,6.30
2002,04,28,04,17,6.30
2002,04,28,04,18,6.30
2002,04,28,04,19,6.20
2002,04,28,04,20,6.20
2002,04,28,04,21,6.20
2002,04,28,04,22,6.20
2002,04,28,04,23,6.10
2002,04,28,04,24,6.10
2002,04,28,04,25,6.00
2002,04,28,04,26,6.00
2002,04,28,04,27,5.90
2002,04,28,04,28,5.90
2002,04,28,04,29,5.80
2002,04,28,04,30,5.80
2002,04,28,04,31,5.70
2002,04,28,04,32,5.70
2002,04,28,04,33,5.70
2002,04,28,04,34,5.70
2002,04,28,04,35,5.70
2002,04,28,04,36,5.70
2002,04,28,04,37,5.70
2002,04,28,04,38,5.70
2002,04,28,04,39,5.70
2002,04,28,04,40,5.60
2002,04,28,04,41,5.60
2002,04,28,04,42,5.60
2002,04,28,04,43,5.60
2002,04,28,04,44,5.60
2002,04,28,04,45,5.60
2002,04,28,04,46,5.60
2002,04,28,04,47,5.60
2002,04,28,04,48,5.70
2002,04,28,04,49,5.70
2002,04,28,04,50,5.70
2002,04,28,04,51,5.70
2002,04,28,04,52,5.70
2002,04,28,04,53,5.70
2002,04,28,04,54,5.80
2002,04,28,04,55,5.80
2002,04,28,04,56,5.70
2002,04,28,04,57,5.70
2002,04,28,04,58,5.70
2002,04,28,04,59,5.70
2002,04,28,05,00,5.70
2002,04,28,05,01,5.70
2002,04,28,05,02,5.70
2002,04,28,05,03,5.70
2002,04,28,05,04,5.70
2002,04,28,05,05,5.70
2002,04,28,05,06,5.70
2002,04,28,05,07,5.70
2002,04,28,05,08,5.60
2002,04,28,05,09,5.60
2002,04,28,05,10,5.60
2002,04,28,05,11,5.50
2002,04,28,05,12,5.50
2002,04,28,05,13,5.40
2002,04,28,05,14,5.40
2002,04,28,05,15,5.30
2002,04,28,05,16,5.30
2002,04,28,05,17,5.30
2002,04,28,05,18,5.20
2002,04,28,05,19,5.20
2002,04,28,05,20,5.20
2002,04,28,05,21,5.10
2002,04,28,05,22,5.10
2002,04,28,05,23,5.10
2002,04,28,05,24,5.00
2002,04,28,05,25,4.90
2002,04,28,05,26,4.90
2002,04,28,05,27,4.90
2002,04,28,05,28,4.90
2002,04,28,05,29,4.80
2002,04,28,05,30,4.80
2002,04,28,05,31,4.80
2002,04,28,05,32,4.80
2002,04,28,05,33,4.80
2002,04,28,05,34,4.80
2002,04,28,05,35,4.80
2002,04,28,05,36,4.80
2002,04,28,05,37,4.80
2002,04,28,05,38,4.80
2002,04,28,05,39,4.70
2002,04,28,05,40,4.70
2002,04,28,05,41,4.70
2002,04,28,05,42,4.70
2002,04,28,05,43,4.70
2002,04,28,05,44,4.70
2002,04,28,05,45,4.70
2002,04,28,05,46,4.70
2002,04,28,05,47,4.60
2002,04,28,05,48,4.60
2002,04,28,05,49,4.60
2002,04,28,05,50,4.60
2002,04,28,05,51,4.60
2002,04,28,05,52,4.60
2002,04,28,05,53,4.60
2002,04,28,05,54,4.50
2002,04,28,05,55,4.50
2002,04,28,05,56,4.60
2002,04,28,05,57,4.60
2002,04,28,05,58,4.60
2002,04,28,05,59,4.60
2002,04,28,06,00,4.60
2002,04,28,06,01,4.60
2002,04,28,06,02,4.60
2002,04,28,06,03,4.60
2002,04,28,06,04,4.60
2002,04,28,06,05,4.60
2002,04,28,06,06,4.60
2002,04,28,06,07,4.70
2002,04,28,06,08,4.80
2002,04,28,06,09,4.80
2002,04,28,06,10,4.80
2002,04,28,06,11,4.70
2002,04,28,06,12,4.70
2002,04,28,06,13,4.70
2002,04,28,06,14,4.70
2002,04,28,06,15,4.70
2002,04,28,06,16,4.80
2002,04,28,06,17,4.80
2002,04,28,06,18,4.90
2002,04,28,06,19,4.90
2002,04,28,06,20,4.90
2002,04,28,06,21,5.00
2002,04,28,06,22,5.10
2002,04,28,06,23,5.20
2002,04,28,06,24,5.20
2002,04,28,06,25,5.30
2002,04,28,06,26,5.30
2002,04,28,06,27,5.30
2002,04,28,06,28,5.40
2002,04,28,06,29,5.50
2002,04,28,06,30,5.50
2002,04,28,06,31,5.50
2002,04,28,06,32,5.50
2002,04,28,06,33,5.50
2002,04,28,06,34,5.40
2002,04,28,06,35,5.50
2002,04,28,06,36,5.50
2002,04,28,06,37,5.60
2002,04,28,06,38,5.70
2002,04,28,06,39,5.80
2002,04,28,06,40,6.00
2002,04,28,06,41,6.00
2002,04,28,06,42,6.10
2002,04,28,06,43,6.20
2002,04,28,06,44,6.40
2002,04,28,06,45,6.40
2002,04,28,06,46,6.50
2002,04,28,06,47,6.60
2002,04,28,06,48,6.60
2002,04,28,06,49,6.70
2002,04,28,06,50,6.70
2002,04,28,06,51,6.80
2002,04,28,06,52,6.80
2002,04,28,06,53,6.90
2002,04,28,06,54,7.00
2002,04,28,06,55,7.10
2002,04,28,06,56,7.10
2002,04,28,06,57,7.20
2002,04,28,06,58,7.30
2002,04,28,06,59,7.30
2002,04,28,07,00,7.40
2002,04,28,07,01,7.40
2002,04,28,07,02,7.50
2002,04,28,07,03,7.60
2002,04,28,07,04,7.60
2002,04,28,07,05,7.70
2002,04,28,07,06,7.80
2002,04,28,07,07,7.80
2002,04,28,07,08,7.90
2002,04,28,07,09,8.00
2002,04,28,07,10,8.10
2002,04,28,07,11,8.20
2002,04,28,07,12,8.20
2002,04,28,07,13,8.20
2002,04,28,07,14,8.20
2002,04,28,07,15,8.20
2002,04,28,07,16,8.20
2002,04,28,07,17,8.30
2002,04,28,07,18,8.30
2002,04,28,07,19,8.30
2002,04,28,07,20,8.30
2002,04,28,07,21,8.40
2002,04,28,07,22,8.40
2002,04,28,07,23,8.50
2002,04,28,07,24,8.50
2002,04,28,07,25,8.50
2002,04,28,07,26,8.50
2002,04,28,07,27,8.50
2002,04,28,07,28,8.50
2002,04,28,07,29,8.50
2002,04,28,07,30,8.50
2002,04,28,07,31,8.60
2002,04,28,07,32,8.70
2002,04,28,07,33,8.70
2002,04,28,07,34,8.70
2002,04,28,07,35,8.70
2002,04,28,07,36,8.90
2002,04,28,07,37,9.00
2002,04,28,07,38,9.10
2002,04,28,07,39,9.20
2002,04,28,07,40,9.20
2002,04,28,07,41,9.30
2002,04,28,07,42,9.30
2002,04,28,07,43,9.30
2002,04,28,07,44,9.20
2002,04,28,07,45,9.20
2002,04,28,07,46,9.20
2002,04,28,07,47,9.10
2002,04,28,07,48,9.10
2002,04,28,07,49,9.10
2002,04,28,07,50,9.10
2002,04,28,07,51,9.10
2002,04,28,07,52,9.20
2002,04,28,07,53,9.40
2002,04,28,07,54,9.50
2002,04,28,07,55,9.50
2002,04,28,07,56,9.60
2002,04,28,07,57,9.60
2002,04,28,07,58,9.70
2002,04,28,07,59,9.80
2002,04,28,08,00,9.90
2002,04,28,08,01,10.00
2002,04,28,08,02,10.10
2002,04,28,08,03,10.10
2002,04,28,08,04,10.10
2002,04,28,08,05,10.00
2002,04,28,08,06,9.90
2002,04,28,08,07,9.90
2002,04,28,08,08,9.80
2002,04,28,08,09,9.70
2002,04,28,08,10,9.70
2002,04,28,08,11,9.80
2002,04,28,08,12,9.80
2002,04,28,08,13,9.80
2002,04,28,08,14,9.90
2002,04,28,08,15,10.00
2002,04,28,08,16,10.10
2002,04,28,08,17,10.10
2002,04,28,08,18,10.10
2002,04,28,08,19,10.20
2002,04,28,08,20,10.40
2002,04,28,08,21,10.40
2002,04,28,08,22,10.50
2002,04,28,08,23,10.50
2002,04,28,08,24,10.60
2002,04,28,08,25,10.50
2002,04,28,08,26,10.60
2002,04,28,08,27,10.60
2002,04,28,08,28,10.50
2002,04,28,08,29,10.40
2002,04,28,08,30,10.40
2002,04,28,08,31,10.50
2002,04,28,08,32,10.60
2002,04,28,08,33,10.60
2002,04,28,08,34,10.60
2002,04,28,08,35,10.60
2002,04,28,08,36,10.70
2002,04,28,08,37,10.50
2002,04,28,08,38,10.50
2002,04,28,08,39,10.50
2002,04,28,08,40,10.50
2002,04,28,08,41,10.50
2002,04,28,08,42,10.50
2002,04,28,08,43,10.50
2002,04,28,08,44,10.40
2002,04,28,08,45,10.50
2002,04,28,08,46,10.60
2002,04,28,08,47,10.60
2002,04,28,08,48,10.50
2002,04,28,08,49,10.60
2002,04,28,08,50,10.60
2002,04,28,08,51,10.60
2002,04,28,08,52,10.60
2002,04,28,08,53,10.50
2002,04,28,08,54,10.60
2002,04,28,08,55,10.60
2002,04,28,08,56,10.40
2002,04,28,08,57,10.40
2002,04,28,08,58,10.50
2002,04,28,08,59,10.40
2002,04,28,09,00,10.40
2002,04,28,09,01,10.40
2002,04,28,09,02,10.40
2002,04,28,09,03,10.40
2002,04,28,09,04,10.40
2002,04,28,09,05,10.40
2002,04,28,09,06,10.40
2002,04,28,09,07,10.50
2002,04,28,09,08,10.60
2002,04,28,09,09,10.80
2002,04,28,09,10,10.90
2002,04,28,09,11,10.90
2002,04,28,09,12,11.10
2002,04,28,09,13,11.10
2002,04,28,09,14,11.10
2002,04,28,09,15,11.20
2002,04,28,09,16,11.10
2002,04,28,09,17,11.00
2002,04,28,09,18,11.10
2002,04,28,09,19,11.10
2002,04,28,09,20,11.00
2002,04,28,09,21,11.00
2002,04,28,09,22,11.00
2002,04,28,09,23,11.10
2002,04,28,09,24,11.10
2002,04,28,09,25,11.20
2002,04,28,09,26,11.30
2002,04,28,09,27,11.30
2002,04,28,09,28,11.20
2002,04,28,09,29,11.30
2002,04,28,09,30,11.30
2002,04,28,09,31,11.40
2002,04,28,09,32,11.50
2002,04,28,09,33,11.70
2002,04,28,09,34,11.80
2002,04,28,09,35,11.90
2002,04,28,09,36,12.00
2002,04,28,09,37,11.90
2002,04,28,09,38,12.00
2002,04,28,09,39,12.10
2002,04,28,09,40,12.00
2002,04,28,09,41,11.90
2002,04,28,09,42,11.80
2002,04,28,09,43,11.70
2002,04,28,09,44,11.80
2002,04,28,09,45,11.80
2002,04,28,09,46,11.60
2002,04,28,09,47,11.60
2002,04,28,09,48,11.50
2002,04,28,09,49,11.60
2002,04,28,09,50,11.70
2002,04,28,09,51,11.80
2002,04,28,09,52,11.70
2002,04,28,09,53,11.80
2002,04,28,09,54,11.90
2002,04,28,09,55,12.00
2002,04,28,09,56,11.90
2002,04,28,09,57,11.70
2002,04,28,09,58,11.60
2002,04,28,09,59,11.60
2002,04,28,10,00,11.50
2002,04,28,10,01,11.60
2002,04,28,10,02,11.60
2002,04,28,10,03,11.60
2002,04,28,10,04,11.60
2002,04,28,10,05,11.70
2002,04,28,10,06,11.80
2002,04,28,10,07,11.80
2002,04,28,10,08,11.80
2002,04,28,10,09,11.80
2002,04,28,10,10,11.80
2002,04,28,10,11,11.90
2002,04,28,10,12,11.90
2002,04,28,10,13,12.00
2002,04,28,10,14,12.10
2002,04,28,10,15,12.20
2002,04,28,10,16,12.10
2002,04,28,10,17,12.20
2002,04,28,10,18,12.30
2002,04,28,10,19,12.30
2002,04,28,10,20,12.30
2002,04,28,10,21,12.20
2002,04,28,10,22,12.20
2002,04,28,10,23,12.10
2002,04,28,10,24,11.80
2002,04,28,10,25,11.60
2002,04,28,10,26,11.70
2002,04,28,10,27,11.70
2002,04,28,10,28,11.70
2002,04,28,10,29,11.70
2002,04,28,10,30,11.60
2002,04,28,10,31,11.70
2002,04,28,10,32,11.70
2002,04,28,10,33,11.70
2002,04,28,10,34,11.80
2002,04,28,10,35,11.70
2002,04,28,10,36,11.60
2002,04,28,10,37,11.60
2002,04,28,10,38,11.40
2002,04,28,10,39,11.50
2002,04,28,10,40,11.40
2002,04,28,10,41,11.50
2002,04,28,10,42,11.60
2002,04,28,10,43,11.70
2002,04,28,10,44,11.70
2002,04,28,10,45,11.80
2002,04,28,10,46,11.80
2002,04,28,10,47,11.80
2002,04,28,10,48,11.80
2002,04,28,10,49,11.90
2002,04,28,10,50,11.90
2002,04,28,10,51,11.90
2002,04,28,10,52,11.90
2002,04,28,10,53,12.00
2002,04,28,10,54,12.10
2002,04,28,10,55,12.20
2002,04,28,10,56,12.30
2002,04,28,10,57,12.30
2002,04,28,10,58,12.20
2002,04,28,10,59,12.30
2002,04,28,11,00,12.30
2002,04,28,11,01,12.30
2002,04,28,11,02,12.40
2002,04,28,11,03,12.40
2002,04,28,11,04,12.30
2002,04,28,11,05,12.30
2002,04,28,11,06,12.20
2002,04,28,11,07,12.10
2002,04,28,11,08,12.00
2002,04,28,11,09,12.00
2002,04,28,11,10,12.00
2002,04,28,11,11,11.90
2002,04,28,11,12,11.80
2002,04,28,11,13,11.70
2002,04,28,11,14,11.70
2002,04,28,11,15,12.00
2002,04,28,11,16,12.10
2002,04,28,11,17,12.20
2002,04,28,11,18,12.30
2002,04,28,11,19,12.20
2002,04,28,11,20,12.10
2002,04,28,11,21,12.00
2002,04,28,11,22,12.10
2002,04,28,11,23,12.10
2002,04,28,11,24,12.20
2002,04,28,11,25,12.30
2002,04,28,11,26,12.40
2002,04,28,11,27,12.50
2002,04,28,11,28,12.60
2002,04,28,11,29,12.80
2002,04,28,11,30,12.90
2002,04,28,11,31,13.00
2002,04,28,11,32,13.30
2002,04,28,11,33,13.30
2002,04,28,11,34,13.30
2002,04,28,11,35,13.30
2002,04,28,11,36,13.50
2002,04,28,11,37,13.60
2002,04,28,11,38,13.70
2002,04,28,11,39,13.60
2002,04,28,11,40,13.50
2002,04,28,11,41,13.40
2002,04,28,11,42,13.50
2002,04,28,11,43,13.60
2002,04,28,11,44,13.60
2002,04,28,11,45,13.70
2002,04,28,11,46,13.80
2002,04,28,11,47,13.90
2002,04,28,11,48,13.90
2002,04,28,11,49,14.00
2002,04,28,11,50,14.00
2002,04,28,11,51,14.00
2002,04,28,11,52,13.70
2002,04,28,11,53,13.70
2002,04,28,11,54,13.50
2002,04,28,11,55,13.20
2002,04,28,11,56,13.00
2002,04,28,11,57,13.00
2002,04,28,11,58,13.00
2002,04,28,11,59,12.90
2002,04,28,12,00,12.80
2002,04,28,12,01,12.90
2002,04,28,12,02,12.70
2002,04,28,12,03,12.60
2002,04,28,12,04,12.60
2002,04,28,12,05,12.60
2002,04,28,12,06,12.80
2002,04,28,12,07,12.90
2002,04,28,12,08,12.90
2002,04,28,12,09,12.90
2002,04,28,12,10,12.90
2002,04,28,12,11,12.70
2002,04,28,12,12,12.70
2002,04,28,12,13,12.70
2002,04,28,12,14,12.70
2002,04,28,12,15,12.70
2002,04,28,12,16,12.70
2002,04,28,12,17,12.70
2002,04,28,12,18,12.70
2002,04,28,12,19,12.50
2002,04,28,12,20,12.50
2002,04,28,12,21,12.60
2002,04,28,12,22,12.60
2002,04,28,12,23,12.60
2002,04,28,12,24,12.70
2002,04,28,12,25,12.80
2002,04,28,12,26,12.70
2002,04,28,12,27,12.70
2002,04,28,12,28,12.60
2002,04,28,12,29,12.90
2002,04,28,12,30,12.80
2002,04,28,12,31,12.80
2002,04,28,12,32,12.90
2002,04,28,12,33,12.90
2002,04,28,12,34,12.90
2002,04,28,12,35,13.00
2002,04,28,12,36,13.10
2002,04,28,12,37,13.10
2002,04,28,12,38,13.30
2002,04,28,12,39,13.30
2002,04,28,12,40,13.20
2002,04,28,12,41,12.90
2002,04,28,12,42,12.80
2002,04,28,12,43,12.70
2002,04,28,12,44,12.80
2002,04,28,12,45,12.90
2002,04,28,12,46,13.20
2002,04,28,12,47,13.20
2002,04,28,12,48,13.40
2002,04,28,12,49,13.40
2002,04,28,12,50,13.30
2002,04,28,12,51,13.10
2002,04,28,12,52,13.10
2002,04,28,12,53,13.20
2002,04,28,12,54,13.00
2002,04,28,12,55,12.90
2002,04,28,12,56,12.90
2002,04,28,12,57,12.90
2002,04,28,12,58,12.60
2002,04,28,12,59,12.70
2002,04,28,13,00,12.50
2002,04,28,13,01,12.20
2002,04,28,13,02,12.20
2002,04,28,13,03,12.20
2002,04,28,13,04,12.50
2002,04,28,13,05,12.80
2002,04,28,13,06,12.90
2002,04,28,13,07,12.60
2002,04,28,13,08,12.30
2002,04,28,13,09,12.20
2002,04,28,13,10,12.20
2002,04,28,13,11,12.10
2002,04,28,13,12,12.20
2002,04,28,13,13,12.40
2002,04,28,13,14,12.50
2002,04,28,13,15,12.70
2002,04,28,13,16,12.80
2002,04,28,13,17,12.80
2002,04,28,13,18,12.80
2002,04,28,13,19,13.00
2002,04,28,13,20,13.20
2002,04,28,13,21,13.30
2002,04,28,13,22,13.20
2002,04,28,13,23,13.20
2002,04,28,13,24,12.90
2002,04,28,13,25,12.80
2002,04,28,13,26,12.70
2002,04,28,13,27,12.70
2002,04,28,13,28,12.70
2002,04,28,13,29,12.80
2002,04,28,13,30,12.80
2002,04,28,13,31,12.70
2002,04,28,13,32,12.70
2002,04,28,13,33,12.80
2002,04,28,13,34,12.90
2002,04,28,13,35,12.80
2002,04,28,13,36,13.00
2002,04,28,13,37,13.10
2002,04,28,13,38,13.10
2002,04,28,13,39,13.00
2002,04,28,13,40,13.10
2002,04,28,13,41,13.10
2002,04,28,13,42,12.90
2002,04,28,13,43,12.80
2002,04,28,13,44,12.60
2002,04,28,13,45,12.60
2002,04,28,13,46,12.60
2002,04,28,13,47,12.60
2002,04,28,13,48,12.70
2002,04,28,13,49,12.90
2002,04,28,13,50,13.10
2002,04,28,13,51,13.20
2002,04,28,13,52,13.00
2002,04,28,13,53,12.70
2002,04,28,13,54,12.60
2002,04,28,13,55,12.60
2002,04,28,13,56,12.50
2002,04,28,13,57,12.50
2002,04,28,13,58,12.40
2002,04,28,13,59,12.30
2002,04,28,14,00,12.40
2002,04,28,14,01,12.40
2002,04,28,14,02,12.40
2002,04,28,14,03,12.50
2002,04,28,14,04,12.50
2002,04,28,14,05,12.60
2002,04,28,14,06,12.80
2002,04,28,14,07,13.10
2002,04,28,14,08,13.30
2002,04,28,14,09,13.30
2002,04,28,14,10,13.30
2002,04,28,14,11,13.40
2002,04,28,14,12,13.40
2002,04,28,14,13,13.20
2002,04,28,14,14,13.10
2002,04,28,14,15,12.90
2002,04,28,14,16,12.70
2002,04,28,14,17,12.60
2002,04,28,14,18,12.70
2002,04,28,14,19,12.60
2002,04,28,14,20,12.40
2002,04,28,14,21,12.40
2002,04,28,14,22,12.40
2002,04,28,14,23,12.50
2002,04,28,14,24,12.60
2002,04,28,14,25,12.80
2002,04,28,14,26,12.90
2002,04,28,14,27,13.00
2002,04,28,14,28,13.20
2002,04,28,14,29,13.20
2002,04,28,14,30,13.30
2002,04,28,14,31,13.20
2002,04,28,14,32,13.10
2002,04,28,14,33,13.00
2002,04,28,14,34,12.90
2002,04,28,14,35,12.80
2002,04,28,14,36,12.80
2002,04,28,14,37,12.70
2002,04,28,14,38,12.70
2002,04,28,14,39,12.90
2002,04,28,14,40,13.10
2002,04,28,14,41,13.10
2002,04,28,14,42,13.20
2002,04,28,14,43,13.30
2002,04,28,14,44,13.40
2002,04,28,14,45,13.40
2002,04,28,14,46,13.50
2002,04,28,14,47,13.40
2002,04,28,14,48,13.40
2002,04,28,14,49,13.40
2002,04,28,14,50,13.50
2002,04,28,14,51,13.70
2002,04,28,14,52,13.80
2002,04,28,14,53,13.90
2002,04,28,14,54,13.80
2002,04,28,14,55,13.60
2002,04,28,14,56,13.70
2002,04,28,14,57,13.80
2002,04,28,14,58,13.80
2002,04,28,14,59,13.70
2002,04,28,15,00,13.50
2002,04,28,15,01,13.40
2002,04,28,15,02,13.50
2002,04,28,15,03,13.50
2002,04,28,15,04,13.50
2002,04,28,15,05,13.50
2002,04,28,15,06,13.60
2002,04,28,15,07,13.60
2002,04,28,15,08,13.40
2002,04,28,15,09,13.40
2002,04,28,15,10,13.40
2002,04,28,15,11,13.40
2002,04,28,15,12,13.40
2002,04,28,15,13,13.50
2002,04,28,15,14,13.30
2002,04,28,15,15,13.20
2002,04,28,15,16,13.10
2002,04,28,15,17,13.10
2002,04,28,15,18,13.10
2002,04,28,15,19,13.30
2002,04,28,15,20,13.50
2002,04,28,15,21,13.70
2002,04,28,15,22,13.80
2002,04,28,15,23,13.80
2002,04,28,15,24,13.90
2002,04,28,15,25,14.00
2002,04,28,15,26,14.10
2002,04,28,15,27,14.30
2002,04,28,15,28,14.50
2002,04,28,15,29,14.40
2002,04,28,15,30,14.10
2002,04,28,15,31,14.00
2002,04,28,15,32,13.90
2002,04,28,15,33,13.80
2002,04,28,15,34,13.70
2002,04,28,15,35,13.80
2002,04,28,15,36,13.90
2002,04,28,15,37,13.90
2002,04,28,15,38,13.80
2002,04,28,15,39,13.70
2002,04,28,15,40,13.60
2002,04,28,15,41,13.40
2002,04,28,15,42,13.40
2002,04,28,15,43,13.40
2002,04,28,15,44,13.50
2002,04,28,15,45,13.40
2002,04,28,15,46,13.30
2002,04,28,15,47,13.20
2002,04,28,15,48,13.00
2002,04,28,15,49,12.80
2002,04,28,15,50,12.70
2002,04,28,15,51,12.70
2002,04,28,15,52,12.80
2002,04,28,15,53,12.70
2002,04,28,15,54,12.60
2002,04,28,15,55,12.50
2002,04,28,15,56,12.60
2002,04,28,15,57,12.70
2002,04,28,15,58,12.90
2002,04,28,15,59,12.80
2002,04,28,16,00,12.80
2002,04,28,16,01,12.80
2002,04,28,16,02,12.90
2002,04,28,16,03,13.00
2002,04,28,16,04,13.10
2002,04,28,16,05,13.20
2002,04,28,16,06,13.20
2002,04,28,16,07,13.20
2002,04,28,16,08,13.20
2002,04,28,16,09,13.20
2002,04,28,16,10,12.90
2002,04,28,16,11,12.70
2002,04,28,16,12,12.60
2002,04,28,16,13,12.60
2002,04,28,16,14,12.50
2002,04,28,16,15,12.40
2002,04,28,16,16,12.50
2002,04,28,16,17,12.70
2002,04,28,16,18,12.90
2002,04,28,16,19,13.00
2002,04,28,16,20,13.00
2002,04,28,16,21,12.90
2002,04,28,16,22,12.80
2002,04,28,16,23,12.80
2002,04,28,16,24,13.00
2002,04,28,16,25,12.90
2002,04,28,16,26,13.00
2002,04,28,16,27,13.20
2002,04,28,16,28,13.20
2002,04,28,16,29,13.10
2002,04,28,16,30,13.10
2002,04,28,16,31,13.20
2002,04,28,16,32,13.40
2002,04,28,16,33,13.40
2002,04,28,16,34,13.40
2002,04,28,16,35,13.30
2002,04,28,16,36,13.30
2002,04,28,16,37,13.30
2002,04,28,16,38,13.50
2002,04,28,16,39,13.50
2002,04,28,16,40,13.70
2002,04,28,16,41,13.90
2002,04,28,16,42,14.00
2002,04,28,16,43,14.00
2002,04,28,16,44,14.10
2002,04,28,16,45,14.10
2002,04,28,16,46,14.20
2002,04,28,16,47,14.20
2002,04,28,16,48,14.30
2002,04,28,16,49,14.30
2002,04,28,16,50,14.30
2002,04,28,16,51,14.40
2002,04,28,16,52,14.40
2002,04,28,16,53,14.30
2002,04,28,16,54,14.20
2002,04,28,16,55,14.20
2002,04,28,16,56,14.20
2002,04,28,16,57,14.30
2002,04,28,16,58,14.40
2002,04,28,16,59,14.50
2002,04,28,17,00,14.70
2002,04,28,17,01,14.90
2002,04,28,17,02,14.90
2002,04,28,17,03,15.00
2002,04,28,17,04,15.00
2002,04,28,17,05,15.10
2002,04,28,17,06,15.20
2002,04,28,17,07,15.20
2002,04,28,17,08,15.20
2002,04,28,17,09,15.30
2002,04,28,17,10,15.40
2002,04,28,17,11,15.50
2002,04,28,17,12,15.60
2002,04,28,17,13,15.60
2002,04,28,17,14,15.70
2002,04,28,17,15,15.80
2002,04,28,17,16,15.80
2002,04,28,17,17,15.90
2002,04,28,17,18,16.00
2002,04,28,17,19,16.10
2002,04,28,17,20,16.20
2002,04,28,17,21,16.30
2002,04,28,17,22,16.40
2002,04,28,17,23,16.60
2002,04,28,17,24,16.60
2002,04,28,17,25,16.60
2002,04,28,17,26,16.70
2002,04,28,17,27,16.70
2002,04,28,17,28,16.80
2002,04,28,17,29,16.80
2002,04,28,17,30,16.90
2002,04,28,17,31,17.00
2002,04,28,17,32,17.00
2002,04,28,17,33,16.90
2002,04,28,17,34,17.00
2002,04,28,17,35,16.90
2002,04,28,17,36,16.80
2002,04,28,17,37,16.70
2002,04,28,17,38,16.70
2002,04,28,17,39,16.60
2002,04,28,17,40,16.50